Weather History for KALN - May, 2013

Change the Weather History Date:

Saturday, May 4, 2013

  Actual Average Record
Temperature  
Mean Temperature 44 °F -  
Max Temperature 47 °F 71 °F 87 °F (2001)
Min Temperature 41 °F 53 °F 33 °F (2011)
Degree Days  
Heating Degree Days 20    
Moisture  
Dew Point 41 °F    
Average Humidity 88    
Maximum Humidity 93    
Minimum Humidity 81    
Precipitation  
Precipitation 0.10 in - - ()
Sea Level Pressure  
Sea Level Pressure 29.92 in    
Wind  
Wind Speed 5 mph (SSE)    
Max Wind Speed 9 mph    
Max Gust Speed -    
Visibility 10 miles    
Events Rain    
Averages and records for this station are not official NWS values.
T = Trace of Precipitation, MM = Missing Value Source: NWS Daily Summary

Daily Weather History Graph

Daily Weather History Graph

Search for Another Location

Airport or City:

Trip Planner

Search our weather history database for the weather conditions in past years. The results will help you decide how hot, cold, wet, or windy it might be!

Date:

Astronomy

May. 04, 2013 Rise Set
Actual Time 5:58 AM CDT 7:55 PM CDT
Civil Twilight 5:29 AM CDT 8:24 PM CDT
Nautical Twilight 4:54 AM CDT 9:00 PM CDT
Astronomical Twilight 4:16 AM CDT 9:38 PM CDT
Moon 2:54 AM CDT (5/4) 2:56 PM CDT (5/4)
Length of Visible Light 14h 55m
Length of Day
13h 57m
Waning Crescent, 27% of the Moon is Illuminated
May 4
Waning Crescent
May 9
New
May 17
First Quarter
May 24
Full
May 31
Last Quarter

Hourly Weather History & Observations

Time (CDT) Temp. Windchill Dew Point Humidity Pressure Visibility Wind Dir Wind Speed Gust Speed Precip Events Conditions
12:15 AM 42.8 °F 37.5 °F 40.1 °F 90% 29.87 in 10.0 mi SSW 9.2 mph - N/A Rain Light Rain
12:35 AM 42.4 °F 40.7 °F 39.9 °F 91% 29.85 in 10.0 mi SW 3.5 mph - 0.01 in Rain Rain
12:55 AM 42.8 °F 41.1 °F 40.1 °F 90% 29.85 in 10.0 mi SSE 3.5 mph - 0.01 in Rain Light Rain
1:15 AM 42.4 °F 38.8 °F 39.9 °F 91% 29.85 in 10.0 mi SSE 5.8 mph - 0.01 in Rain Light Rain
1:35 AM 42.3 °F 39.4 °F 39.7 °F 91% 29.85 in 10.0 mi SSW 4.6 mph - 0.01 in   Overcast
1:55 AM 42.4 °F 39.6 °F 39.7 °F 90% 29.85 in 10.0 mi South 4.6 mph - 0.02 in   Overcast
2:15 AM 42.4 °F 38.8 °F 39.7 °F 90% 29.86 in 10.0 mi South 5.8 mph - N/A   Light Drizzle
2:35 AM 42.4 °F 39.6 °F 39.7 °F 90% 29.86 in 10.0 mi SSE 4.6 mph - N/A Rain Rain
2:55 AM 42.3 °F 37.3 °F 39.6 °F 90% 29.87 in 10.0 mi SSE 8.1 mph - 0.01 in   Light Drizzle
3:15 AM 42.3 °F 37.3 °F 39.7 °F 91% 29.87 in 10.0 mi South 8.1 mph - N/A   Light Drizzle
3:35 AM 41.9 °F 37.5 °F 39.4 °F 91% 29.87 in 10.0 mi South 6.9 mph - 0.01 in   Overcast
3:55 AM 41.9 °F 38.2 °F 39.4 °F 91% 29.87 in 10.0 mi South 5.8 mph - 0.01 in   Overcast
4:15 AM 41.9 °F 38.2 °F 39.2 °F 90% 29.87 in 10.0 mi South 5.8 mph - 0.01 in   Overcast
4:35 AM 41.5 °F 38.6 °F 39.2 °F 91% 29.87 in 10.0 mi SSE 4.6 mph - 0.01 in   Overcast
4:55 AM 41.5 °F 38.6 °F 39.2 °F 91% 29.88 in 10.0 mi SSE 4.6 mph - 0.01 in   Overcast
5:15 AM 41.5 °F 38.6 °F 39.2 °F 91% 29.88 in 10.0 mi South 4.6 mph - 0.01 in   Overcast
5:35 AM 41.4 °F 39.4 °F 38.8 °F 91% 29.87 in 10.0 mi South 3.5 mph - 0.01 in   Overcast
5:55 AM 41.5 °F 37.8 °F 39.2 °F 91% 29.88 in 10.0 mi South 5.8 mph - 0.02 in   Overcast
6:15 AM 41.4 °F - 38.8 °F 91% 29.88 in 10.0 mi Calm Calm - N/A   Overcast
6:35 AM 41.5 °F 38.6 °F 39.2 °F 91% 29.90 in 10.0 mi SSE 4.6 mph - N/A   Overcast
6:45 AM 41.0 °F 39.0 °F 39.2 °F 93% 29.91 in 10.0 mi Variable 3.5 mph - N/A   Overcast
6:55 AM 41.4 °F 38.4 °F 38.8 °F 91% 29.91 in 10.0 mi SSE 4.6 mph - 0.01 in   Overcast
7:55 AM 41.0 °F 35.2 °F 39.2 °F 93% 29.93 in 10.0 mi ESE 9.2 mph - N/A   Overcast
8:45 AM 42.8 °F 41.1 °F 37.4 °F 81% 29.93 in 7.0 mi Variable 3.5 mph - N/A   Scattered Clouds
9:45 AM 42.8 °F - 37.4 °F 81% 29.93 in 10.0 mi Calm Calm - N/A   Overcast
10:50 AM 44.6 °F - 39.2 °F 81% 29.94 in 10.0 mi Calm Calm - N/A   Overcast
11:50 AM 44.6 °F - 39.2 °F 81% 29.95 in 10.0 mi Calm Calm - N/A   Overcast
12:50 PM 46.4 °F - 41.0 °F 81% 29.95 in 10.0 mi Calm Calm - N/A   Overcast
1:50 PM 46.4 °F 42.9 °F 41.0 °F 81% 29.95 in 7.0 mi ESE 6.9 mph - N/A   Overcast
2:50 PM 46.4 °F 42.9 °F 41.0 °F 81% 29.95 in 4.0 mi SE 6.9 mph - N/A   Overcast
3:50 PM 46.4 °F 42.9 °F 42.8 °F 87% 29.95 in 4.0 mi SE 6.9 mph - N/A   Overcast
4:50 PM 46.4 °F 42.9 °F 42.8 °F 87% 29.96 in 5.0 mi SE 6.9 mph - N/A   Overcast
5:50 PM 46.4 °F 42.9 °F 42.8 °F 87% 29.96 in 10.0 mi ESE 6.9 mph - N/A   Overcast
6:50 PM 48.2 °F - 42.8 °F 82% 29.98 in 10.0 mi ENE 9.2 mph - N/A   Overcast
7:50 PM 46.4 °F 42.9 °F 42.8 °F 87% 29.99 in 10.0 mi East 6.9 mph - N/A   Overcast
8:50 PM 46.4 °F 41.9 °F 42.8 °F 87% 30.01 in 10.0 mi NE 9.2 mph - N/A   Mostly Cloudy
9:50 PM 46.4 °F - 42.8 °F 87% 30.02 in 10.0 mi Calm Calm - N/A   Mostly Cloudy
10:15 PM 46.6 °F - 43.7 °F 90% 30.01 in 10.0 mi Calm Calm - N/A Rain Rain
10:35 PM 46.4 °F - 43.3 °F 89% 30.01 in 10.0 mi Calm Calm - N/A   Light Drizzle
10:55 PM 46.0 °F - 43.3 °F 90% 30.01 in 10.0 mi Calm Calm - N/A   Mostly Cloudy
11:15 PM 45.7 °F - 43.2 °F 91% 30.01 in 10.0 mi Calm Calm - 0.01 in   Mostly Cloudy
11:35 PM 45.9 °F - 43.3 °F 91% 30.00 in 10.0 mi Calm Calm - 0.01 in   Overcast
11:55 PM 45.9 °F - 43.3 °F 91% 30.00 in 10.0 mi Calm Calm - 0.01 in   Overcast